Time,TemperatureF,DewpointF,PressureIn,WindDirection,WindDirectionDegrees,WindSpeedMPH,WindSpeedGustMPH,Humidity,HourlyPrecipIn,Conditions,Clouds,dailyrainin,SoftwareType,DateUTC
2013-02-23 00:01:00,9.0,-8.0,-100.00,NNW,345,20.0,29.0,45,0.00,,,-99.99,,2013-02-23 07:01:00,
2013-02-23 00:11:00,9.0,-7.0,-100.00,NNW,335,19.0,28.0,46,0.00,,,-99.99,,2013-02-23 07:11:00,
2013-02-23 00:21:00,7.0,-8.0,-100.00,NNE,15,13.0,19.0,48,0.00,,,-99.99,,2013-02-23 07:21:00,
2013-02-23 00:32:00,8.0,-7.0,-100.00,NE,40,11.0,17.0,51,0.00,,,-99.99,,2013-02-23 07:32:00,
2013-02-23 00:41:00,8.0,-7.0,-100.00,NE,40,11.0,17.0,51,0.00,,,-99.99,,2013-02-23 07:41:00,
2013-02-23 00:52:00,8.0,-6.0,-100.00,SSW,205,5.0,9.0,50,0.00,,,-99.99,,2013-02-23 07:52:00,
2013-02-23 01:01:00,9.0,-6.0,-100.00,SW,220,7.0,10.0,49,0.00,,,-99.99,,2013-02-23 08:01:00,
2013-02-23 01:11:00,8.0,-7.0,-100.00,NE,40,7.0,13.0,47,0.00,,,-99.99,,2013-02-23 08:11:00,
2013-02-23 01:21:00,8.0,-8.0,-100.00,NE,35,3.0,11.0,48,0.00,,,-99.99,,2013-02-23 08:21:00,
2013-02-23 01:31:00,8.0,-8.0,-100.00,NNE,20,16.0,22.0,48,0.00,,,-99.99,,2013-02-23 08:31:00,
2013-02-23 01:42:00,8.0,-7.0,-100.00,NE,45,12.0,28.0,49,0.00,,,-99.99,,2013-02-23 08:42:00,
2013-02-23 01:52:00,8.0,-7.0,-100.00,NE,45,15.0,22.0,50,0.00,,,-99.99,,2013-02-23 08:52:00,
2013-02-23 02:01:00,8.0,-7.0,-100.00,NNE,25,15.0,18.0,49,0.00,,,-99.99,,2013-02-23 09:01:00,
2013-02-23 02:11:00,8.0,-7.0,-100.00,NNE,25,14.0,22.0,49,0.00,,,-99.99,,2013-02-23 09:11:00,
2013-02-23 02:21:00,9.0,-6.0,-100.00,NNE,20,14.0,20.0,49,0.00,,,-99.99,,2013-02-23 09:21:00,
2013-02-23 02:31:00,9.0,-6.0,-100.00,NE,35,16.0,26.0,48,0.00,,,-99.99,,2013-02-23 09:31:00,
2013-02-23 02:41:00,9.0,-6.0,-100.00,NE,35,12.0,24.0,49,0.00,,,-99.99,,2013-02-23 09:41:00,
2013-02-23 02:51:00,9.0,-7.0,-100.00,NNE,25,14.0,22.0,48,0.00,,,-99.99,,2013-02-23 09:51:00,
2013-02-23 03:01:00,9.0,-6.0,-100.00,NE,35,19.0,27.0,48,0.00,,,-99.99,,2013-02-23 10:01:00,
2013-02-23 03:11:00,9.0,-6.0,-100.00,NE,45,16.0,27.0,48,0.00,,,-99.99,,2013-02-23 10:11:00,
2013-02-23 03:21:00,9.0,-6.0,-100.00,NNE,25,20.0,29.0,49,0.00,,,-99.99,,2013-02-23 10:21:00,
2013-02-23 03:31:00,9.0,-6.0,-100.00,NNE,30,19.0,30.0,49,0.00,,,-99.99,,2013-02-23 10:31:00,
2013-02-23 03:42:00,10.0,-5.0,-100.00,NNE,25,22.0,37.0,49,0.00,,,-99.99,,2013-02-23 10:42:00,
2013-02-23 03:51:00,10.0,-6.0,-100.00,NE,40,21.0,34.0,48,0.00,,,-99.99,,2013-02-23 10:51:00,
2013-02-23 04:02:00,10.0,-5.0,-100.00,NE,50,21.0,32.0,49,0.00,,,-99.99,,2013-02-23 11:02:00,
2013-02-23 04:11:00,10.0,-5.0,-100.00,NE,50,22.0,29.0,50,0.00,,,-99.99,,2013-02-23 11:11:00,
2013-02-23 04:21:00,10.0,-5.0,-100.00,ENE,65,21.0,33.0,49,0.00,,,-99.99,,2013-02-23 11:21:00,
2013-02-23 04:32:00,10.0,-5.0,-100.00,NE,45,13.0,23.0,49,0.00,,,-99.99,,2013-02-23 11:32:00,
2013-02-23 04:42:00,9.0,-5.0,-100.00,NE,45,20.0,34.0,50,0.00,,,-99.99,,2013-02-23 11:42:00,
2013-02-23 04:52:00,10.0,-5.0,-100.00,NE,45,17.0,24.0,50,0.00,,,-99.99,,2013-02-23 11:52:00,
2013-02-23 05:02:00,11.0,-5.0,-100.00,NE,45,20.0,28.0,49,0.00,,,-99.99,,2013-02-23 12:02:00,
2013-02-23 05:11:00,10.0,-5.0,-100.00,NE,40,15.0,28.0,49,0.00,,,-99.99,,2013-02-23 12:11:00,
2013-02-23 05:21:00,10.0,-5.0,-100.00,NNE,25,19.0,29.0,48,0.00,,,-99.99,,2013-02-23 12:21:00,
2013-02-23 05:32:00,11.0,-5.0,-100.00,NNE,25,18.0,30.0,49,0.00,,,-99.99,,2013-02-23 12:32:00,
2013-02-23 05:42:00,10.0,-5.0,-100.00,NNE,25,16.0,29.0,48,0.00,,,-99.99,,2013-02-23 12:42:00,
2013-02-23 05:52:00,10.0,-5.0,-100.00,NNE,15,15.0,28.0,49,0.00,,,-99.99,,2013-02-23 12:52:00,
2013-02-23 06:01:00,10.0,-5.0,-100.00,North,10,17.0,22.0,49,0.00,,,-99.99,,2013-02-23 13:01:00,
2013-02-23 06:11:00,11.0,-4.0,-100.00,North,5,17.0,26.0,49,0.00,,,-99.99,,2013-02-23 13:11:00,
2013-02-23 06:22:00,11.0,-5.0,-100.00,WNW,300,5.0,24.0,48,0.00,,,-99.99,,2013-02-23 13:22:00,
2013-02-23 06:32:00,11.0,-4.0,-100.00,NNW,345,9.0,17.0,49,0.00,,,-99.99,,2013-02-23 13:32:00,
2013-02-23 06:42:00,10.0,-5.0,-100.00,NNW,330,6.0,12.0,49,0.00,,,-99.99,,2013-02-23 13:42:00,
2013-02-23 06:52:00,10.0,-5.0,-100.00,NNE,15,4.0,7.0,49,0.00,,,-99.99,,2013-02-23 13:52:00,
2013-02-23 07:02:00,11.0,-4.0,-100.00,NE,40,6.0,9.0,48,0.00,,,-99.99,,2013-02-23 14:02:00,
2013-02-23 07:11:00,8.0,-7.0,-100.00,NW,325,7.0,12.0,49,0.00,,,-99.99,,2013-02-23 14:11:00,
2013-02-23 07:21:00,10.0,-5.0,-100.00,WNW,290,6.0,10.0,50,0.00,,,-99.99,,2013-02-23 14:21:00,
2013-02-23 07:32:00,11.0,-4.0,-100.00,NNW,340,9.0,12.0,49,0.00,,,-99.99,,2013-02-23 14:32:00,
2013-02-23 07:42:00,10.0,-5.0,-100.00,NNW,330,16.0,25.0,49,0.00,,,-99.99,,2013-02-23 14:42:00,
2013-02-23 07:52:00,13.0,-3.0,-100.00,NW,325,17.0,25.0,48,0.00,,,-99.99,,2013-02-23 14:52:00,
2013-02-23 08:01:00,14.0,-3.0,-100.00,NNW,330,13.0,20.0,46,0.00,,,-99.99,,2013-02-23 15:01:00,
2013-02-23 08:11:00,14.0,-3.0,-100.00,NNW,330,13.0,20.0,46,0.00,,,-99.99,,2013-02-23 15:11:00,
2013-02-23 08:21:00,16.0,-2.0,-100.00,North,5,14.0,21.0,45,0.00,,,-99.99,,2013-02-23 15:21:00,
2013-02-23 08:32:00,16.0,-2.0,-100.00,North,5,14.0,21.0,45,0.00,,,-99.99,,2013-02-23 15:32:00,
2013-02-23 08:42:00,19.0,0.0,-100.00,North,0,12.0,16.0,41,0.00,,,-99.99,,2013-02-23 15:42:00,
2013-02-23 08:52:00,19.0,-1.0,-100.00,NNE,20,14.0,19.0,41,0.00,,,-99.99,,2013-02-23 15:52:00,
2013-02-23 09:01:00,20.0,0.0,-100.00,North,5,11.0,19.0,41,0.00,,,-99.99,,2013-02-23 16:01:00,
2013-02-23 09:11:00,20.0,1.0,-100.00,North,350,14.0,19.0,41,0.00,,,-99.99,,2013-02-23 16:11:00,
2013-02-23 09:21:00,22.0,1.0,-100.00,North,5,12.0,17.0,40,0.00,,,-99.99,,2013-02-23 16:21:00,
2013-02-23 09:31:00,27.0,4.0,-100.00,SSW,195,2.0,13.0,37,0.00,,,-99.99,,2013-02-23 16:31:00,
2013-02-23 09:42:00,29.0,4.0,-100.00,SE,135,7.0,14.0,33,0.00,,,-99.99,,2013-02-23 16:42:00,
2013-02-23 09:51:00,21.0,0.0,-100.00,South,185,8.0,12.0,39,0.00,,,-99.99,,2013-02-23 16:51:00,
2013-02-23 10:01:00,19.0,0.0,-100.00,SW,220,7.0,11.0,41,0.00,,,-99.99,,2013-02-23 17:01:00,
2013-02-23 10:11:00,20.0,1.0,-100.00,SW,230,7.0,9.0,41,0.00,,,-99.99,,2013-02-23 17:11:00,
2013-02-23 10:21:00,20.0,1.0,-100.00,SSW,200,7.0,12.0,42,0.00,,,-99.99,,2013-02-23 17:21:00,
2013-02-23 10:31:00,21.0,2.0,-100.00,SSW,195,11.0,13.0,42,0.00,,,-99.99,,2013-02-23 17:31:00,
2013-02-23 10:42:00,22.0,2.0,-100.00,South,190,11.0,15.0,42,0.00,,,-99.99,,2013-02-23 17:42:00,
2013-02-23 10:52:00,23.0,3.0,-100.00,South,180,9.0,12.0,41,0.00,,,-99.99,,2013-02-23 17:52:00,
2013-02-23 11:01:00,25.0,5.0,-100.00,SSE,165,7.0,9.0,41,0.00,,,-99.99,,2013-02-23 18:01:00,
2013-02-23 11:12:00,25.0,4.0,-100.00,South,175,7.0,9.0,39,0.00,,,-99.99,,2013-02-23 18:12:00,
2013-02-23 11:21:00,25.0,4.0,-100.00,South,190,6.0,11.0,39,0.00,,,-99.99,,2013-02-23 18:21:00,
2013-02-23 11:32:00,26.0,5.0,-100.00,SSE,160,7.0,9.0,39,0.00,,,-99.99,,2013-02-23 18:32:00,
2013-02-23 11:42:00,28.0,6.0,-100.00,SSE,160,6.0,10.0,38,0.00,,,-99.99,,2013-02-23 18:42:00,
2013-02-23 11:51:00,29.0,7.0,-100.00,SSE,160,8.0,11.0,37,0.00,,,-99.99,,2013-02-23 18:51:00,
2013-02-23 12:01:00,26.0,5.0,-100.00,South,170,12.0,16.0,39,0.00,,,-99.99,,2013-02-23 19:01:00,
2013-02-23 12:11:00,28.0,7.0,-100.00,South,175,12.0,16.0,40,0.00,,,-99.99,,2013-02-23 19:11:00,
2013-02-23 12:21:00,29.0,8.0,-100.00,South,170,10.0,15.0,39,0.00,,,-99.99,,2013-02-23 19:21:00,
2013-02-23 12:32:00,30.0,8.0,-100.00,South,170,7.0,11.0,39,0.00,,,-99.99,,2013-02-23 19:32:00,
2013-02-23 12:41:00,30.0,9.0,-100.00,SSE,165,12.0,14.0,39,0.00,,,-99.99,,2013-02-23 19:41:00,
2013-02-23 12:52:00,25.0,6.0,-100.00,East,100,12.0,18.0,43,0.00,,,-99.99,,2013-02-23 19:52:00,
2013-02-23 13:01:00,28.0,7.0,-100.00,South,175,12.0,17.0,41,0.00,,,-99.99,,2013-02-23 20:01:00,
2013-02-23 13:11:00,27.0,7.0,-100.00,SSE,150,11.0,17.0,41,0.00,,,-99.99,,2013-02-23 20:11:00,
2013-02-23 13:21:00,28.0,7.0,-100.00,South,170,10.0,19.0,41,0.00,,,-99.99,,2013-02-23 20:21:00,
2013-02-23 13:32:00,28.0,9.0,-100.00,ESE,120,7.0,16.0,43,0.00,,,-99.99,,2013-02-23 20:32:00,
2013-02-23 13:41:00,30.0,10.0,-100.00,SE,135,9.0,14.0,42,0.00,,,-99.99,,2013-02-23 20:41:00,
2013-02-23 13:52:00,30.0,10.0,-100.00,SE,130,9.0,14.0,43,0.00,,,-99.99,,2013-02-23 20:52:00,
2013-02-23 14:01:00,31.0,9.0,-100.00,ESE,120,9.0,12.0,40,0.00,,,-99.99,,2013-02-23 21:01:00,
2013-02-23 14:11:00,33.0,11.0,-100.00,SE,125,5.0,11.0,40,0.00,,,-99.99,,2013-02-23 21:11:00,
2013-02-23 14:22:00,38.0,12.0,-100.00,SE,125,4.0,6.0,33,0.00,,,-99.99,,2013-02-23 21:22:00,
2013-02-23 14:32:00,36.0,10.0,-100.00,ESE,120,4.0,7.0,33,0.00,,,-99.99,,2013-02-23 21:32:00,
2013-02-23 14:41:00,36.0,11.0,-100.00,NE,35,3.0,6.0,33,0.00,,,-99.99,,2013-02-23 21:41:00,
2013-02-23 14:51:00,33.0,9.0,-100.00,ENE,75,9.0,13.0,35,0.00,,,-99.99,,2013-02-23 21:51:00,
2013-02-23 15:01:00,33.0,10.0,-100.00,NNE,30,4.0,16.0,37,0.00,,,-99.99,,2013-02-23 22:01:00,
2013-02-23 15:11:00,32.0,10.0,-100.00,South,190,11.0,14.0,39,0.00,,,-99.99,,2013-02-23 22:11:00,
2013-02-23 15:21:00,32.0,10.0,-100.00,South,180,11.0,14.0,39,0.00,,,-99.99,,2013-02-23 22:21:00,
2013-02-23 15:31:00,34.0,11.0,-100.00,South,180,9.0,12.0,39,0.00,,,-99.99,,2013-02-23 22:31:00,
2013-02-23 15:42:00,33.0,11.0,-100.00,South,175,7.0,12.0,39,0.00,,,-99.99,,2013-02-23 22:42:00,
2013-02-23 15:51:00,33.0,12.0,-100.00,South,175,5.0,9.0,40,0.00,,,-99.99,,2013-02-23 22:51:00,
2013-02-23 16:01:00,34.0,11.0,-100.00,South,170,7.0,10.0,39,0.00,,,-99.99,,2013-02-23 23:01:00,
2013-02-23 16:11:00,31.0,10.0,-100.00,South,180,7.0,10.0,42,0.00,,,-99.99,,2013-02-23 23:11:00,
2013-02-23 16:21:00,31.0,12.0,-100.00,SSE,155,8.0,9.0,43,0.00,,,-99.99,,2013-02-23 23:21:00,
2013-02-23 16:31:00,30.0,11.0,-100.00,SSE,150,9.0,10.0,45,0.00,,,-99.99,,2013-02-23 23:31:00,
2013-02-23 16:42:00,30.0,12.0,-100.00,South,170,11.0,14.0,45,0.00,,,-99.99,,2013-02-23 23:42:00,
2013-02-23 16:52:00,28.0,11.0,-100.00,SSE,165,12.0,15.0,47,0.00,,,-99.99,,2013-02-23 23:52:00,
2013-02-23 17:01:00,26.0,10.0,-100.00,South,180,12.0,14.0,50,0.00,,,-99.99,,2013-02-24 00:01:00,
2013-02-23 17:11:00,25.0,11.0,-100.00,South,190,10.0,13.0,53,0.00,,,-99.99,,2013-02-24 00:11:00,
2013-02-23 17:22:00,24.0,11.0,-100.00,South,190,11.0,14.0,56,0.00,,,-99.99,,2013-02-24 00:22:00,
2013-02-23 17:32:00,24.0,11.0,-100.00,SSW,205,9.0,14.0,58,0.00,,,-99.99,,2013-02-24 00:32:00,
2013-02-23 17:42:00,23.0,11.0,-100.00,SSW,200,7.0,12.0,59,0.00,,,-99.99,,2013-02-24 00:42:00,
2013-02-23 17:52:00,22.0,11.0,-100.00,SE,145,3.0,7.0,61,0.00,,,-99.99,,2013-02-24 00:52:00,
2013-02-23 18:01:00,22.0,11.0,-100.00,South,175,7.0,12.0,62,0.00,,,-99.99,,2013-02-24 01:01:00,
2013-02-23 18:11:00,23.0,11.0,-100.00,South,190,7.0,12.0,60,0.00,,,-99.99,,2013-02-24 01:11:00,
2013-02-23 18:22:00,22.0,11.0,-100.00,South,185,11.0,12.0,61,0.00,,,-99.99,,2013-02-24 01:22:00,
2013-02-23 18:31:00,22.0,11.0,-100.00,South,190,4.0,11.0,62,0.00,,,-99.99,,2013-02-24 01:31:00,
2013-02-23 18:42:00,21.0,11.0,-100.00,ENE,60,4.0,6.0,63,0.00,,,-99.99,,2013-02-24 01:42:00,
2013-02-23 18:51:00,21.0,11.0,-100.00,East,95,5.0,7.0,64,0.00,,,-99.99,,2013-02-24 01:51:00,
2013-02-23 19:01:00,19.0,10.0,-100.00,NE,55,4.0,5.0,64,0.00,,,-99.99,,2013-02-24 02:01:00,
2013-02-23 19:11:00,17.0,8.0,-100.00,NNE,25,5.0,8.0,65,0.00,,,-99.99,,2013-02-24 02:11:00,
2013-02-23 19:21:00,16.0,8.0,-100.00,ENE,60,4.0,7.0,67,0.00,,,-99.99,,2013-02-24 02:21:00,
2013-02-23 19:32:00,16.0,8.0,-100.00,East,85,4.0,4.0,69,0.00,,,-99.99,,2013-02-24 02:32:00,
2013-02-23 19:42:00,15.0,8.0,-100.00,West,270,2.0,7.0,71,0.00,,,-99.99,,2013-02-24 02:42:00,
2013-02-23 19:52:00,13.0,6.0,-100.00,WNW,290,3.0,6.0,71,0.00,,,-99.99,,2013-02-24 02:52:00,
2013-02-23 20:01:00,15.0,8.0,-100.00,WSW,245,4.0,6.0,73,0.00,,,-99.99,,2013-02-24 03:01:00,
2013-02-23 20:11:00,16.0,8.0,-100.00,West,260,7.0,9.0,72,0.00,,,-99.99,,2013-02-24 03:11:00,
2013-02-23 20:21:00,17.0,9.0,-100.00,West,275,6.0,11.0,71,0.00,,,-99.99,,2013-02-24 03:21:00,
2013-02-23 20:32:00,18.0,10.0,-100.00,West,275,9.0,12.0,69,0.00,,,-99.99,,2013-02-24 03:32:00,
2013-02-23 20:42:00,17.0,10.0,-100.00,West,270,7.0,9.0,73,0.00,,,-99.99,,2013-02-24 03:42:00,
2013-02-23 20:52:00,18.0,12.0,-100.00,WSW,240,5.0,9.0,75,0.00,,,-99.99,,2013-02-24 03:52:00,
2013-02-23 21:01:00,17.0,10.0,-100.00,NE,35,2.0,7.0,74,0.00,,,-99.99,,2013-02-24 04:01:00,
2013-02-23 21:11:00,14.0,8.0,-100.00,NE,55,1.0,4.0,75,0.00,,,-99.99,,2013-02-24 04:11:00,
2013-02-23 21:21:00,15.0,9.0,-100.00,SE,145,4.0,4.0,77,0.00,,,-99.99,,2013-02-24 04:21:00,
2013-02-23 21:31:00,15.0,9.0,-100.00,NE,55,2.0,6.0,77,0.00,,,-99.99,,2013-02-24 04:31:00,
2013-02-23 21:41:00,14.0,9.0,-100.00,East,95,1.0,3.0,78,0.00,,,-99.99,,2013-02-24 04:41:00,
2013-02-23 21:52:00,14.0,9.0,-100.00,ESE,120,4.0,6.0,79,0.00,,,-99.99,,2013-02-24 04:52:00,
2013-02-23 22:01:00,14.0,9.0,-100.00,ENE,65,2.0,8.0,79,0.00,,,-99.99,,2013-02-24 05:01:00,
2013-02-23 22:11:00,15.0,10.0,-100.00,ENE,65,1.0,6.0,81,0.00,,,-99.99,,2013-02-24 05:11:00,
2013-02-23 22:22:00,16.0,11.0,-100.00,SE,140,4.0,8.0,81,0.00,,,-99.99,,2013-02-24 05:22:00,
2013-02-23 22:32:00,15.0,10.0,-100.00,ENE,60,2.0,6.0,81,0.00,,,-99.99,,2013-02-24 05:32:00,
2013-02-23 22:42:00,14.0,9.0,-100.00,North,10,3.0,5.0,81,0.00,,,-99.99,,2013-02-24 05:42:00,
2013-02-23 22:52:00,13.0,8.0,-100.00,SW,230,2.0,4.0,81,0.00,,,-99.99,,2013-02-24 05:52:00,
2013-02-23 23:01:00,13.0,9.0,-100.00,ENE,70,1.0,4.0,82,0.00,,,-99.99,,2013-02-24 06:01:00,
2013-02-23 23:11:00,13.0,8.0,-100.00,WNW,295,1.0,4.0,82,0.00,,,-99.99,,2013-02-24 06:11:00,
2013-02-23 23:21:00,11.0,7.0,-100.00,West,265,4.0,6.0,82,0.00,,,-99.99,,2013-02-24 06:21:00,
2013-02-23 23:31:00,9.0,4.0,-100.00,WNW,295,4.0,6.0,82,0.00,,,-99.99,,2013-02-24 06:31:00,
2013-02-23 23:42:00,6.0,1.0,-100.00,NW,325,4.0,6.0,82,0.00,,,-99.99,,2013-02-24 06:42:00,
2013-02-23 23:52:00,7.0,3.0,-100.00,NNW,335,6.0,9.0,83,0.00,,,-99.99,,2013-02-24 06:52:00,